Hobart, OK

11:55 PM CDT on June 26, 2017 (GMT -0500)
Hobart Municipal

Weather History for KHBR - October, 2012

Change the Weather History Date:

Saturday, October 27, 2012

  Actual Average Record
Temperature  
Mean Temperature 39 °F -  
Max Temperature 52 °F 66 °F 87 °F (2014)
Min Temperature 26 °F 46 °F 26 °F (1997)
Degree Days  
Heating Degree Days 26    
Moisture  
Dew Point 22 °F    
Average Humidity 55    
Maximum Humidity 81    
Minimum Humidity 28    
Precipitation  
Precipitation 0.00 in - - ()
Sea Level Pressure  
Sea Level Pressure 30.33 in    
Wind  
Wind Speed 5 mph (ENE)    
Max Wind Speed 8 mph    
Max Gust Speed -    
Visibility 10 miles    
Events      
Averages and records for this station are not official NWS values.
T = Trace of Precipitation, MM = Missing Value Source: NWS Daily Summary

Daily Weather History Graph

Daily Weather History Graph

Search for Another Location

Airport or City:

Trip Planner

Search our weather history database for the weather conditions in past years. The results will help you decide how hot, cold, wet, or windy it might be!

Date:

Astronomy

Oct. 27, 2012 Rise Set
Actual Time 7:53 AM CDT 6:46 PM CDT
Civil Twilight 7:27 AM CDT 7:12 PM CDT
Nautical Twilight 6:57 AM CDT 7:42 PM CDT
Astronomical Twilight 6:27 AM CDT 8:11 PM CDT
Moon 5:31 PM CDT 5:52 AM CDT
Length of Visible Light 11h 45m
Length of Day
10h 53m
Waxing Gibbous, 96% of the Moon is Illuminated
Oct 27
Waxing Gibbous
Oct 29
Full
Nov 6
Last Quarter
Nov 13
New
Nov 20
First Quarter

Hourly Weather History & Observations

Time (CDT) Temp. Windchill Dew Point Humidity Pressure Visibility Wind Dir Wind Speed Gust Speed Precip Events Conditions
12:53 AM 34.0 °F 29.8 °F 21.9 °F 61% 30.41 in 10.0 mi NE 4.6 mph - N/A   Clear
1:53 AM 30.9 °F 25.2 °F 21.9 °F 69% 30.40 in 10.0 mi North 5.8 mph - N/A   Clear
2:53 AM 30.0 °F 24.1 °F 21.0 °F 69% 30.40 in 10.0 mi NNW 5.8 mph - N/A   Clear
3:53 AM 28.0 °F 20.0 °F 21.0 °F 75% 30.39 in 10.0 mi North 8.1 mph - N/A   Clear
4:53 AM 27.0 °F 18.7 °F 21.9 °F 81% 30.38 in 10.0 mi North 8.1 mph - N/A   Clear
5:53 AM 27.0 °F 18.7 °F 21.0 °F 78% 30.38 in 10.0 mi North 8.1 mph - N/A   Clear
6:53 AM 27.0 °F 20.5 °F 21.9 °F 81% 30.40 in 10.0 mi North 5.8 mph - N/A   Clear
7:53 AM 26.1 °F 18.4 °F 21.0 °F 81% 30.41 in 10.0 mi North 6.9 mph - N/A   Clear
8:53 AM 32.0 °F 28.7 °F 24.8 °F 75% 30.39 in 10.0 mi ENE 3.5 mph - N/A   Clear
9:53 AM 39.0 °F 34.0 °F 26.1 °F 60% 30.42 in 10.0 mi East 6.9 mph - N/A   Clear
10:53 AM 41.0 °F 38.0 °F 26.1 °F 55% 30.42 in 10.0 mi ESE 4.6 mph - N/A   Clear
11:53 AM 44.1 °F 39.5 °F 26.1 °F 49% 30.37 in 10.0 mi SE 8.1 mph - N/A   Clear
12:53 PM 46.9 °F - 25.0 °F 42% 30.34 in 10.0 mi Variable 3.5 mph - N/A   Clear
1:53 PM 48.9 °F - 25.0 °F 39% 30.30 in 10.0 mi NNE 4.6 mph - N/A   Clear
2:53 PM 50.0 °F - 23.0 °F 35% 30.27 in 10.0 mi Calm Calm - N/A   Clear
3:53 PM 52.0 °F - 23.0 °F 32% 30.25 in 10.0 mi NE 3.5 mph - N/A   Clear
4:53 PM 52.0 °F - 21.0 °F 30% 30.24 in 10.0 mi East 5.8 mph - N/A   Clear
5:53 PM 51.1 °F - 19.0 °F 28% 30.22 in 10.0 mi SSE 3.5 mph - N/A   Clear
6:53 PM 48.9 °F - 21.0 °F 33% 30.24 in 10.0 mi Calm Calm - N/A   Clear
7:53 PM 46.0 °F - 19.9 °F 35% 30.26 in 10.0 mi Calm Calm - N/A   Clear
8:53 PM 41.0 °F 36.4 °F 21.0 °F 45% 30.27 in 10.0 mi ENE 6.9 mph - N/A   Clear
9:53 PM 37.9 °F 34.4 °F 21.0 °F 51% 30.27 in 10.0 mi East 4.6 mph - N/A   Clear
10:53 PM 37.4 °F 32.8 °F 21.2 °F 52% 30.25 in 10.0 mi ESE 5.8 mph - N/A   Clear
11:53 PM 36.0 °F 30.3 °F 21.0 °F 55% 30.27 in 10.0 mi SSE 6.9 mph - N/A   Clear